Weather History for K4A6 - September, 2013

Change the Weather History Date:

Sunday, September 15, 2013

  Actual Average (KHSV) Record (KHSV)
Temperature  
Mean Temperature 68 °F 74 °F  
Max Temperature 82 °F 85 °F 103 °F (1927)
Min Temperature 55 °F 63 °F 48 °F (1937)
Degree Days  
Heating Degree Days 0 0  
Month to date heating degree days 0  
Since 1 July heating degree days 0  
Cooling Degree Days 4 9  
Month to date cooling degree days 172  
Year to date cooling degree days 1767  
Growing Degree Days 18 (Base 50)    
Moisture  
Dew Point 60 °F    
Average Humidity 79    
Maximum Humidity 100    
Minimum Humidity 45    
Precipitation  
Precipitation 0.00 in 0.13 in 0.98 in (1943)
Month to date precipitation 1.81  
Year to date precipitation 38.13  
Snow  
Snow 0.00 in - - ()
Month to date snowfall  
Since 1 July snowfall  
Since 1 September snowfall  
Snow Depth -    
Sea Level Pressure  
Sea Level Pressure 30.12 in    
Wind  
Wind Speed 2 mph (SW)    
Max Wind Speed 10 mph    
Max Gust Speed -    
Visibility 10 miles    
Events      
T = Trace of Precipitation, MM = Missing Value Source: NWS Daily Summary

Daily Weather History Graph

Daily Weather History Graph

Search for Another Location

Airport or City:

Trip Planner

Search our weather history database for the weather conditions in past years. The results will help you decide how hot, cold, wet, or windy it might be!

Date:

Astronomy

Sep. 15, 2013 Rise Set
Actual Time 6:27 AM CDT 6:50 PM CDT
Civil Twilight 6:01 AM CDT 7:15 PM CDT
Nautical Twilight 5:32 AM CDT 7:45 PM CDT
Astronomical Twilight 5:02 AM CDT 8:15 PM CDT
Moon 4:10 PM CDT (9/15) 2:12 AM CDT (9/15)
Length of Visible Light 13h 13m
Length of Day
12h 23m
Waxing Gibbous, 82% of the Moon is Illuminated
Sep 15
Waxing Gibbous
Sep 19
Full
Sep 26
Last Quarter
Oct 4
New
Oct 11
First Quarter

Hourly Weather History & Observations

Time (CDT) Temp. Heat Index Dew Point Humidity Pressure Visibility Wind Dir Wind Speed Gust Speed Precip Events Conditions
12:15 AM 59.0 °F - 57.2 °F 94% 30.09 in 10.0 mi Calm Calm - N/A   Clear
12:35 AM 57.2 °F - 57.2 °F 100% 30.09 in 10.0 mi Calm Calm - N/A   Clear
12:55 AM 57.2 °F - 57.2 °F 100% 30.10 in 10.0 mi Calm Calm - N/A   Clear
1:15 AM 57.2 °F - 55.4 °F 94% 30.09 in 10.0 mi Calm Calm - N/A   Partly Cloudy
1:35 AM 57.2 °F - 55.4 °F 94% 30.09 in 10.0 mi Calm Calm - N/A   Partly Cloudy
1:55 AM 57.2 °F - 55.4 °F 94% 30.09 in 10.0 mi Calm Calm - N/A   Partly Cloudy
2:15 AM 57.2 °F - 55.4 °F 94% 30.09 in 10.0 mi Calm Calm - N/A   Mostly Cloudy
2:35 AM 57.2 °F - 55.4 °F 94% 30.09 in 10.0 mi Calm Calm - N/A   Mostly Cloudy
2:55 AM 57.2 °F - 55.4 °F 94% 30.10 in 10.0 mi Calm Calm - N/A   Partly Cloudy
3:15 AM 57.2 °F - 55.4 °F 94% 30.10 in 10.0 mi Calm Calm - N/A   Clear
3:35 AM 55.4 °F - 55.4 °F 100% 30.10 in 10.0 mi Calm Calm - N/A   Clear
3:55 AM 55.4 °F - 55.4 °F 100% 30.11 in 10.0 mi Calm Calm - N/A   Clear
4:15 AM 55.4 °F - 55.4 °F 100% 30.10 in 10.0 mi Calm Calm - N/A   Clear
4:35 AM 55.4 °F - 53.6 °F 94% 30.11 in 10.0 mi Calm Calm - N/A   Clear
4:55 AM 55.4 °F - 55.4 °F 100% 30.11 in 10.0 mi Calm Calm - N/A   Clear
5:15 AM 55.4 °F - 53.6 °F 94% 30.12 in 10.0 mi NE 3.5 mph - N/A   Clear
5:35 AM 55.4 °F - 55.4 °F 100% 30.12 in 10.0 mi Calm Calm - N/A   Clear
5:55 AM 55.4 °F - 53.6 °F 94% 30.13 in 10.0 mi Calm Calm - N/A   Clear
6:15 AM 55.4 °F - 53.6 °F 94% 30.13 in 10.0 mi Calm Calm - N/A   Clear
6:35 AM 55.4 °F - 53.6 °F 94% 30.14 in 10.0 mi Calm Calm - N/A   Clear
6:55 AM 55.4 °F - 53.6 °F 94% 30.14 in 10.0 mi Calm Calm - N/A   Clear
7:15 AM 57.2 °F - 55.4 °F 94% 30.14 in 10.0 mi Calm Calm - N/A   Clear
7:35 AM 59.0 °F - 57.2 °F 94% 30.15 in 10.0 mi Calm Calm - N/A   Clear
7:55 AM 60.8 °F - 59.0 °F 94% 30.15 in 10.0 mi Calm Calm - N/A   Clear
8:15 AM 64.4 °F - 59.0 °F 83% 30.15 in 10.0 mi Calm Calm - N/A   Clear
8:35 AM 66.2 °F - 60.8 °F 83% 30.15 in 10.0 mi NNE 3.5 mph - N/A   Clear
8:55 AM 68.0 °F - 60.8 °F 78% 30.15 in 10.0 mi NNE 3.5 mph - N/A   Clear
9:15 AM 69.8 °F - 62.6 °F 78% 30.16 in 10.0 mi Calm Calm - N/A   Partly Cloudy
9:35 AM 71.6 °F - 62.6 °F 73% 30.16 in 10.0 mi South 6.9 mph - N/A   Scattered Clouds
9:55 AM 71.6 °F - 62.6 °F 73% 30.16 in 9.0 mi South 3.5 mph - N/A   Mostly Cloudy
10:15 AM 73.4 °F - 64.4 °F 73% 30.15 in 10.0 mi ESE 5.8 mph - N/A   Scattered Clouds
10:35 AM 75.2 °F - 64.4 °F 69% 30.15 in 9.0 mi SW 4.6 mph - N/A   Partly Cloudy
10:55 AM 75.2 °F - 64.4 °F 69% 30.15 in 9.0 mi South 3.5 mph - N/A   Mostly Cloudy
11:15 AM 77.0 °F - 64.4 °F 65% 30.15 in 10.0 mi SW 5.8 mph - N/A   Mostly Cloudy
11:35 AM 77.0 °F - 64.4 °F 65% 30.15 in 10.0 mi South 8.1 mph - N/A   Scattered Clouds
11:55 AM 75.2 °F - 64.4 °F 69% 30.14 in 10.0 mi SW 6.9 mph - N/A   Scattered Clouds
12:15 PM 75.2 °F - 64.4 °F 69% 30.14 in 10.0 mi SSE 4.6 mph - N/A   Mostly Cloudy
12:35 PM 77.0 °F - 64.4 °F 65% 30.13 in 10.0 mi South 8.1 mph - N/A   Overcast
12:55 PM 78.8 °F - 62.6 °F 57% 30.13 in 10.0 mi SSW 10.4 mph - N/A   Mostly Cloudy
1:15 PM 80.6 °F 81.8 °F 62.6 °F 54% 30.12 in 10.0 mi South 6.9 mph - N/A   Scattered Clouds
1:35 PM 80.6 °F 81.8 °F 62.6 °F 54% 30.11 in 10.0 mi WSW 5.8 mph - N/A   Scattered Clouds
1:55 PM 80.6 °F 81.1 °F 59.0 °F 48% 30.11 in 10.0 mi South 8.1 mph - N/A   Partly Cloudy
2:15 PM 80.6 °F 81.5 °F 60.8 °F 51% 30.11 in 10.0 mi SW 4.6 mph - N/A   Clear
2:35 PM 82.4 °F 82.9 °F 60.8 °F 48% 30.10 in 10.0 mi WSW 5.8 mph - N/A   Clear
2:55 PM 80.6 °F 81.5 °F 60.8 °F 51% 30.10 in 10.0 mi WNW 5.8 mph - N/A   Partly Cloudy
3:15 PM 82.4 °F 82.9 °F 60.8 °F 48% 30.10 in 10.0 mi West 6.9 mph - N/A   Partly Cloudy
3:35 PM 80.6 °F 81.1 °F 59.0 °F 48% 30.10 in 10.0 mi Calm Calm - N/A   Clear
3:55 PM 82.4 °F 82.9 °F 60.8 °F 48% 30.10 in 10.0 mi West 6.9 mph - N/A   Clear
4:15 PM 80.6 °F 81.5 °F 60.8 °F 51% 30.10 in 10.0 mi WSW 4.6 mph - N/A   Clear
4:35 PM 82.4 °F 82.5 °F 59.0 °F 45% 30.10 in 10.0 mi WSW 6.9 mph - N/A   Clear
4:55 PM 80.6 °F 81.1 °F 59.0 °F 48% 30.10 in 10.0 mi WSW 6.9 mph - N/A   Clear
5:15 PM 80.6 °F 81.1 °F 59.0 °F 48% 30.10 in 10.0 mi West 5.8 mph - N/A   Clear
5:35 PM 80.6 °F 81.1 °F 59.0 °F 48% 30.10 in 10.0 mi West 4.6 mph - N/A   Clear
5:55 PM 78.8 °F - 62.6 °F 57% 30.10 in 10.0 mi WNW 3.5 mph - N/A   Clear
6:15 PM 77.0 °F - 62.6 °F 61% 30.10 in 10.0 mi Calm Calm - N/A   Clear
6:35 PM 73.4 °F - 64.4 °F 73% 30.10 in 10.0 mi Calm Calm - N/A   Clear
6:55 PM 73.4 °F - 64.4 °F 73% 30.10 in 10.0 mi Calm Calm - N/A   Clear
7:15 PM 71.6 °F - 64.4 °F 78% 30.11 in 10.0 mi Calm Calm - N/A   Clear
7:35 PM 68.0 °F - 62.6 °F 83% 30.11 in 10.0 mi Calm Calm - N/A   Clear
7:55 PM 68.0 °F - 64.4 °F 88% 30.12 in 10.0 mi Calm Calm - N/A   Clear
8:15 PM 66.2 °F - 64.4 °F 94% 30.12 in 10.0 mi Calm Calm - N/A   Clear
8:35 PM 66.2 °F - 62.6 °F 88% 30.12 in 10.0 mi Calm Calm - N/A   Clear
8:55 PM 66.2 °F - 62.6 °F 88% 30.13 in 10.0 mi Calm Calm - N/A   Clear
9:15 PM 64.4 °F - 62.6 °F 94% 30.13 in 10.0 mi Calm Calm - N/A   Clear
9:35 PM 64.4 °F - 62.6 °F 94% 30.14 in 10.0 mi Calm Calm - N/A   Clear
9:55 PM 64.4 °F - 62.6 °F 94% 30.14 in 10.0 mi Calm Calm - N/A   Clear
10:15 PM 62.6 °F - 62.6 °F 100% 30.14 in 10.0 mi Calm Calm - N/A   Clear
10:35 PM 62.6 °F - 60.8 °F 94% 30.13 in 10.0 mi Calm Calm - N/A   Clear
10:55 PM 62.6 °F - 60.8 °F 94% 30.14 in 10.0 mi NE 4.6 mph - N/A   Clear
11:15 PM 62.6 °F - 60.8 °F 94% 30.14 in 10.0 mi Calm Calm - N/A   Clear
11:35 PM 62.6 °F - 60.8 °F 94% 30.14 in 10.0 mi Calm Calm - N/A   Clear
11:55 PM 60.8 °F - 59.0 °F 94% 30.14 in 9.0 mi Calm Calm - N/A   Clear